Tracking 17265 objects as of 3-September-2015
HD Live streaming from Space Station

Track Soyuz TMA-18M
and Space Station

THORAD AGENA D DEB

Track THORAD AGENA D DEB now!
10-day predictions
THORAD AGENA D DEB is classified as:


NORAD ID: 4935
Int'l Code: 1970-025GB
Perigee: 914.5 km
Apogee: 1,009.4 km
Inclination: 99.9 °
Period: 104.2 minutes
Semi major axis: 7332 km
RCS: 0.0346 m2 (small)
Launch date: April 8, 1970
Source: United States (US)

Note: This is SATELLITE DEBRIS
Your satellite tracking list
Your tracking list is empty





NASA's NSSDC Master Catalog

Two Line Element Set (TLE):
1 04935U 70025GB  15245.46495637  .00000249  00000-0  27081-3 0  9992
2 04935  99.8755 119.5424 0064696 237.3696 247.6262 13.82551767272352

Source of the keplerian elements: AFSPC

N2YO: 499